• In Hungary
  • List of Countries
  • For 7 days
  • Water Temperature
  • Satellite Maps
  • Weather Map
  • News
  • Weather Widgets
  • user-avatar
    Login

    Hourly Weather Raleigh

    Today, 14 December, Thursday

    Time Temperature Precipitation Wind Pressure Humidity
    00:00 +1°C° 0 mm 5 mps 746 mmHg 51%
    01:00 +1°C° 0 mm 4 mps 746 mmHg 57%
    02:00 +1°C° 0 mm 4 mps 746 mmHg 56%
    03:00 +1°C° 0 mm 5 mps 746 mmHg 55%
    04:00 +1°C° 0 mm 5 mps 746 mmHg 54%
    05:00 +1°C° 0 mm 5 mps 747 mmHg 56%
    06:00 +1°C° 0 mm 4 mps 747 mmHg 58%
    07:00 +1°C° 0 mm 4 mps 747 mmHg 60%
    08:00 +3°C° 0 mm 4 mps 748 mmHg 57%
    09:00 +5°C° 0 mm 4 mps 749 mmHg 55%
    10:00 +6°C° 0 mm 4 mps 749 mmHg 52%
    11:00 +7°C° 0 mm 4 mps 749 mmHg 50%
    12:00 +8°C° 0 mm 4 mps 750 mmHg 47%
    13:00 +10°C° 0 mm 3 mps 750 mmHg 45%
    14:00 +10°C° 0 mm 3 mps 750 mmHg 48%
    15:00 +10°C° 0 mm 2 mps 750 mmHg 50%
    16:00 +9°C° 0 mm 2 mps 751 mmHg 53%
    17:00 +8°C° 0 mm 2 mps 751 mmHg 56%
    18:00 +6°C° 0 mm 2 mps 752 mmHg 60%
    19:00 +4°C° 0 mm 2 mps 752 mmHg 64%
    20:00 +4°C° 0 mm 2 mps 753 mmHg 65%
    21:00 +3°C° 0 mm 2 mps 753 mmHg 65%
    22:00 +3°C° 0 mm 2 mps 754 mmHg 66%
    23:00 +2°C° 0 mm 2 mps 754 mmHg 66%

    Tomorrow, 15 December, Friday

    Time Temperature Precipitation Wind Pressure Humidity
    00:00 +2°C° 0 mm 2 mps 754 mmHg 66%
    01:00 +1°C° 0 mm 2 mps 754 mmHg 67%
    02:00 +1°C° 0 mm 2 mps 754 mmHg 67%
    03:00 +1°C° 0 mm 2 mps 754 mmHg 68%
    04:00 0°C° 0 mm 3 mps 754 mmHg 68%
    05:00 -1°C° 0 mm 2 mps 754 mmHg 70%
    06:00 -1°C° 0 mm 2 mps 754 mmHg 71%
    07:00 -2°C° 0 mm 2 mps 754 mmHg 73%
    08:00 +1°C° 0 mm 2 mps 754 mmHg 69%
    09:00 +2°C° 0 mm 2 mps 754 mmHg 66%
    10:00 +3°C° 0 mm 2 mps 754 mmHg 62%
    11:00 +4°C° 0 mm 2 mps 754 mmHg 60%
    12:00 +6°C° 0 mm 2 mps 753 mmHg 58%
    13:00 +7°C° 0 mm 2 mps 753 mmHg 56%
    14:00 +7°C° 0 mm 2 mps 753 mmHg 56%
    15:00 +7°C° 0 mm 2 mps 752 mmHg 56%
    16:00 +7°C° 0 mm 2 mps 752 mmHg 57%
    17:00 +6°C° 0 mm 2 mps 753 mmHg 60%
    18:00 +5°C° 0 mm 2 mps 754 mmHg 64%
    19:00 +4°C° 0 mm 2 mps 754 mmHg 67%
    20:00 +4°C° 0 mm 2 mps 755 mmHg 67%
    21:00 +4°C° 0 mm 2 mps 756 mmHg 68%
    22:00 +3°C° 0 mm 2 mps 756 mmHg 68%
    23:00 +3°C° 0 mm 2 mps 756 mmHg 67%

    Day after tomorrow, 16 December, Saturday

    Time Temperature Precipitation Wind Pressure Humidity
    00:00 +2°C° 0 mm 2 mps 757 mmHg 67%
    01:00 +1°C° 0 mm 2 mps 757 mmHg 66%
    02:00 +1°C° 0 mm 2 mps 757 mmHg 65%
    03:00 +1°C° 0 mm 2 mps 757 mmHg 64%
    04:00 +1°C° 0 mm 1 mps 758 mmHg 63%
    05:00 +1°C° 0 mm 1 mps 758 mmHg 63%
    06:00 +1°C° 0 mm 1 mps 758 mmHg 63%
    07:00 +1°C° 0 mm 1 mps 759 mmHg 63%
    08:00 +2°C° 0 mm 2 mps 759 mmHg 57%
    09:00 +4°C° 0 mm 2 mps 760 mmHg 52%
    10:00 +5°C° 0 mm 2 mps 760 mmHg 47%
    11:00 +7°C° 0 mm 2 mps 760 mmHg 45%
    12:00 +8°C° 0 mm 2 mps 759 mmHg 43%
    13:00 +9°C° 0 mm 2 mps 759 mmHg 41%
    14:00 +9°C° 0 mm 2 mps 758 mmHg 42%
    15:00 +9°C° 0 mm 2 mps 758 mmHg 44%
    16:00 +9°C° 0 mm 2 mps 758 mmHg 46%
    17:00 +8°C° 0 mm 2 mps 758 mmHg 50%
    18:00 +6°C° 0 mm 2 mps 759 mmHg 54%
    19:00 +5°C° 0 mm 2 mps 759 mmHg 58%
    20:00 +5°C° 0 mm 2 mps 759 mmHg 60%
    21:00 +4°C° 0 mm 2 mps 759 mmHg 62%
    22:00 +4°C° 0 mm 2 mps 760 mmHg 64%
    23:00 +4°C° 0 mm 2 mps 760 mmHg 67%

    17 December, Sunday

    Time Temperature Precipitation Wind Pressure Humidity
    00:00 +4°C° 0 mm 2 mps 760 mmHg 69%
    01:00 +3°C° 0 mm 2 mps 759 mmHg 71%
    02:00 +3°C° 0 mm 2 mps 759 mmHg 74%
    03:00 +3°C° 0 mm 2 mps 759 mmHg 77%
    04:00 +3°C° 0 mm 2 mps 759 mmHg 80%
    05:00 +2°C° 0 mm 2 mps 759 mmHg 82%
    06:00 +3°C° 0 mm 1 mps 759 mmHg 84%
    07:00 +3°C° 0 mm 1 mps 759 mmHg 86%
    08:00 +5°C° 0 mm 1 mps 759 mmHg 79%
    09:00 +5°C° 0 mm 2 mps 760 mmHg 72%
    10:00 +7°C° 0 mm 2 mps 760 mmHg 65%
    11:00 +9°C° 0 mm 2 mps 759 mmHg 59%
    12:00 +10°C° 0 mm 3 mps 759 mmHg 53%
    13:00 +12°C° 0 mm 3 mps 758 mmHg 47%
    14:00 +12°C° 0 mm 3 mps 758 mmHg 48%
    15:00 +13°C° 0 mm 2 mps 758 mmHg 50%
    16:00 +13°C° 0 mm 2 mps 757 mmHg 51%
    17:00 +12°C° 0 mm 2 mps 757 mmHg 54%
    18:00 +10°C° 0 mm 2 mps 757 mmHg 57%
    19:00 +10°C° 0 mm 2 mps 757 mmHg 60%
    20:00 +10°C° 0 mm 2 mps 757 mmHg 62%
    21:00 +9°C° 0 mm 2 mps 757 mmHg 63%
    22:00 +9°C° 0 mm 2 mps 757 mmHg 65%
    23:00 +9°C° 0 mm 2 mps 757 mmHg 68%

    18 December, Monday

    Time Temperature Precipitation Wind Pressure Humidity
    00:00 +8°C° 0 mm 2 mps 757 mmHg 70%
    01:00 +8°C° 0 mm 2 mps 757 mmHg 73%
    02:00 +8°C° 0 mm 2 mps 757 mmHg 74%
    03:00 +8°C° 0 mm 2 mps 757 mmHg 76%
    04:00 +8°C° 0 mm 2 mps 756 mmHg 78%
    05:00 +9°C° 0 mm 1 mps 757 mmHg 80%
    06:00 +9°C° 0 mm 1 mps 757 mmHg 82%
    07:00 +9°C° 0 mm 1 mps 757 mmHg 84%
    08:00 +10°C° 0 mm 1 mps 757 mmHg 80%
    09:00 +12°C° 0 mm 1 mps 757 mmHg 76%
    10:00 +13°C° 0 mm 1 mps 757 mmHg 72%
    11:00 +15°C° 0 mm 1 mps 757 mmHg 69%
    12:00 +16°C° 0 mm 1 mps 756 mmHg 67%
    13:00 +19°C° 0 mm 1 mps 755 mmHg 65%
    14:00 +18°C° 0 mm 1 mps 755 mmHg 69%
    15:00 +18°C° 0 mm 1 mps 755 mmHg 74%
    16:00 +16°C° 0 mm 1 mps 755 mmHg 79%
    17:00 +16°C° 0.3 mm 1 mps 755 mmHg 84%
    18:00 +15°C° 0.3 mm 1 mps 755 mmHg 90%
    19:00 +14°C° 0.3 mm 1 mps 755 mmHg 95%
    20:00 +14°C° 0.2 mm 1 mps 755 mmHg 96%
    21:00 +14°C° 0.2 mm 1 mps 754 mmHg 97%
    22:00 +14°C° 0.2 mm 1 mps 754 mmHg 98%
    23:00 +14°C° 0.6 mm 1 mps 754 mmHg 98%

    19 December, Tuesday

    Time Temperature Precipitation Wind Pressure Humidity
    00:00 +14°C° 0.6 mm 1 mps 753 mmHg 98%
    01:00 +14°C° 0.6 mm 1 mps 753 mmHg 98%
    02:00 +14°C° 0.5 mm 1 mps 753 mmHg 98%
    03:00 +14°C° 0.5 mm 1 mps 753 mmHg 97%
    04:00 +14°C° 0.5 mm 1 mps 753 mmHg 97%
    05:00 +14°C° 0 mm 1 mps 753 mmHg 97%
    06:00 +13°C° 0 mm 1 mps 753 mmHg 97%
    07:00 +13°C° 0 mm 1 mps 753 mmHg 96%
    08:00 +14°C° 0 mm 1 mps 754 mmHg 91%
    09:00 +15°C° 0 mm 1 mps 754 mmHg 87%
    10:00 +16°C° 0 mm 2 mps 755 mmHg 82%
    11:00 +17°C° 0 mm 2 mps 754 mmHg 77%
    12:00 +18°C° 0 mm 2 mps 753 mmHg 72%
    13:00 +19°C° 0 mm 2 mps 753 mmHg 67%
    14:00 +19°C° 0 mm 2 mps 753 mmHg 69%
    15:00 +19°C° 0 mm 2 mps 753 mmHg 72%
    16:00 +18°C° 0 mm 2 mps 752 mmHg 74%
    17:00 +19°C° 0 mm 1 mps 752 mmHg 78%
    18:00 +18°C° 0 mm 1 mps 753 mmHg 83%
    19:00 +16°C° 0 mm 1 mps 753 mmHg 87%
    20:00 +15°C° 0 mm 1 mps 753 mmHg 89%
    21:00 +15°C° 0 mm 1 mps 753 mmHg 91%
    22:00 +15°C° 0 mm 1 mps 752 mmHg 92%
    23:00 +15°C° 0 mm 1 mps 752 mmHg 92%
    Show more